Location: Goulburn
(34.7479°S, 149.7277°E)
Time: 15:14:44
(UTC+11:00)

LightSail 2 - Visible Passes

Search period start: 22 October 2019 00:00
Search period end: 01 November 2019 00:00
Orbit: 707 x 722 km, 24.0° (Epoch: 20 October)

Date Brightness Start Highest point End Pass type
(mag) Time Alt. Az. Time Alt. Az. Time Alt. Az.
22 Oct 6.5 04:25:04 24° N 04:25:12 24° N 04:29:22 10° ENE visible
23 Oct 7.5 03:30:57 13° NE 03:30:57 13° NE 03:31:47 10° ENE visible
23 Oct 6.5 05:09:57 16° NW 05:12:44 24° N 05:16:52 10° NE visible
24 Oct 6.5 04:15:52 24° N 04:15:52 24° N 04:19:29 10° NE visible
25 Oct 7.7 03:21:49 11° NE 03:21:49 11° NE 03:22:00 10° NE visible
25 Oct 6.6 05:00:49 17° NW 05:02:46 21° N 05:06:37 10° NE visible
26 Oct 6.8 04:06:51 20° NNE 04:06:51 20° NNE 04:09:21 10° NE visible
27 Oct 6.8 04:51:58 16° NNW 04:52:44 17° NNW 04:55:57 10° NNE visible
28 Oct 7.4 03:58:09 13° NNE 03:58:09 13° NNE 03:58:55 10° NNE visible
29 Oct 7.2 04:43:26 11° N 04:43:26 11° N 04:44:24 10° N visible
